Regional Weather Roundup
Issued by NWS

Home | Current Version | Previous Version | Text Only | Print | Product List | Glossary Off
Versions: 1 2 3 4 5 6 7 8 9 10 11 12 13 14 15 16 17 18 19 20 21 22 23 24 25 26 27 28 29 30 31 32 33 34 35 36 37 38 39 40 41 42 43 44 45 46 47 48 49 50

000
ASUS43 KDTX 020601
RWRMI
MICHIGAN HOURLY REGIONAL WEATHER ROUNDUP
NATIONAL WEATHER SERVICE DETROIT/PONTIAC MI
200 AM EDT THU APR 02 2015

NOTE: "FAIR" INDICATES FEW OR NO CLOUDS BELOW 12,000 FEET WITH NO
SIGNIFICANT WEATHER AND/OR OBSTRUCTION TO VISIBILITY.

MIZ047>049-052>055-059>063-066>070-074>076-081>083-020700-
SOUTHEAST LOWER MICHIGAN

CITY           SKY/WX    TMP DP  RH WIND       PRES   REMARKS
ADRIAN         CLEAR     49  33  54 SW12      29.96S
6HR MIN TEMP:  49; 6HR MAX TEMP:  58;

ALMA           PTCLDY    51  37  57 S8        29.86F
ANN ARBOR      PTCLDY    33  32  96 SW3       29.94F FOG
BAD AXE        MOCLDY    43  35  73 S13       29.91F
CARO           CLEAR     46  36  66 S9        29.89F
DETROIT CITY   CLEAR     47  34  60 S7        29.95F
6HR MIN TEMP:  42; 6HR MAX TEMP:  51;

DETROIT        MOCLDY    44  35  70 S8        29.95F
6HR MIN TEMP:  40; 6HR MAX TEMP:  50;

FLINT          CLEAR     51  35  54 S9        29.91F
6HR MIN TEMP:  48; 6HR MAX TEMP:  57;

GROSSE ILE     CLEAR     39  36  87 S6        29.95F WCI  35
HILLSDALE      CLEAR     51  32  48 S8        29.93F
6HR MIN TEMP:  51; 6HR MAX TEMP:  60;

HOWELL         PTCLDY    48  34  57 S8        29.91F
6HR MIN TEMP:  47; 6HR MAX TEMP:  57;


CITY           SKY/WX    TMP DP  RH WIND       PRES   REMARKS
JACKSON        CLEAR     55  32  41 S14G23    29.91F
6HR MIN TEMP:  54; 6HR MAX TEMP:  61;

LAMBERTVILLE   CLEAR     54  32  43 S7        29.97S
LANSING        PTCLDY    54  34  46 S15G24    29.89F
6HR MIN TEMP:  54; 6HR MAX TEMP:  60;

LAPEER         FAIR      41  34  75 S6        29.92F
MASON          PTCLDY    53  33  47 S5        29.90F
MONROE         PTCLDY    50  34  53 S10       29.95S
MT. CLEMENS    CLEAR     34  32  92 E5        29.93F WCI  30
6HR MIN TEMP:  33; 6HR MAX TEMP:  43;

PONTIAC        CLEAR     45  34  65 S6        29.93F
6HR MIN TEMP:  43; 6HR MAX TEMP:  50;

PORT HOPE        N/A     44  36  73 S8        29.90F
6HR MIN TEMP:  41; 6HR MAX TEMP:  44;

PORT HURON     CLEAR     34  32  93 CALM      29.97F
TRI CITIES     CLEAR     49  37  63 S14       29.86F
6HR MIN TEMP:  49; 6HR MAX TEMP:  54;

TROY           CLEAR     40  35  81 CALM      29.96F
SAGINAW HB     CLEAR     50  36  57 S13       29.86F
$$
MIZ043>046-050>051-056>058-064>065-071>073-077>080-020700-
SOUTHWEST LOWER MICHIGAN

CITY           SKY/WX    TMP DP  RH WIND       PRES   REMARKS
BATTLE CREEK   CLEAR     54  35  48 S14       29.89F
6HR MIN TEMP:  54; 6HR MAX TEMP:  62;

BENTON HARBOR  MOCLDY    56  34  43 S14       29.85F
6HR MIN TEMP:  56; 6HR MAX TEMP:  65;

BIG RAPIDS     CLEAR     56  35  45 SW8G16    29.81F
6HR MIN TEMP:  53; 6HR MAX TEMP:  59;

COLDWATER      CLEAR     53  31  44 S8G16     29.91F
6HR MIN TEMP:  52; 6HR MAX TEMP:  60;

FREMONT        FAIR      53  32  45 S7        29.82S
HOLLAND        PTCLDY    56  36  47 S13       29.85S
6HR MIN TEMP:  56; 6HR MAX TEMP:  62;

GRAND RAPIDS   CLEAR     54  35  48 S13       29.85F
6HR MIN TEMP:  53; 6HR MAX TEMP:  59;

IONIA          FAIR      55  36  49 S14G21    29.86S
KALAMAZOO      CLEAR     53  36  52 S12       29.89F
6HR MIN TEMP:  52; 6HR MAX TEMP:  63;

LUDINGTON      PTCLDY    61  35  38 S25G35    29.76F
6HR MIN TEMP:  58; 6HR MAX TEMP:  62;

MARSHALL       CLEAR     53  33  48 S13G21    29.90F
MOUNT PLEASANT CLEAR     49  37  62 S7        29.84F
6HR MIN TEMP:  49; 6HR MAX TEMP:  54;

MUSKEGON       PTCLDY    60  33  36 S24G36    29.82S
6HR MIN TEMP:  59; 6HR MAX TEMP:  63;

SOUTH HAVEN    PTCLDY    58  33  38 S15G22    29.85S
$$
MIZ016>042-020700-
NORTHERN LOWER MICHIGAN

CITY           SKY/WX    TMP DP  RH WIND       PRES   REMARKS
ALPENA         CLOUDY    38  34  85 SE3       29.81F
6HR MIN TEMP:  37; 6HR MAX TEMP:  43;

BEAVER ISLAND  MOCLDY    50  34  53 S9        29.67F
6HR MIN TEMP:  35; 6HR MAX TEMP:  50;

BELLAIRE       CLEAR     53  34  49 S7        29.73F
6HR MIN TEMP:  53; 6HR MAX TEMP:  56;

CADILLAC       CLEAR     53  36  51 S10       29.77F
CHARLEVOIX     PTCLDY    53  36  50 S8        29.73F
6HR MIN TEMP:  48; 6HR MAX TEMP:  54;

FRANKFORT      MOCLDY    64  30  27 S22G38    29.73R
GAYLORD        CLEAR     45  33  63 S12       29.75F
6HR MIN TEMP:  43; 6HR MAX TEMP:  50;

GRAYLING       CLEAR     46  33  59 S3        29.79F
6HR MIN TEMP:  42; 6HR MAX TEMP:  51;

HARBOR SPRINGS PTCLDY    52  34  51 CALM      29.72F
HOUGHTON LAKE  CLEAR     46  33  60 SE8       29.80F
6HR MIN TEMP:  44; 6HR MAX TEMP:  50;

MANISTEE       PTCLDY    63  36  36 S13G25    29.75S
OSCODA         CLOUDY    42  37  81 S10G16    29.84F
PELLSTON       PTCLDY    46  32  58 CALM      29.73F
6HR MIN TEMP:  39; 6HR MAX TEMP:  46;

ROGERS CITY    CLOUDY    41  37  83 S12       29.78F
TRAVERSE CITY  PTCLDY    59  36  42 S10G24    29.70F
6HR MIN TEMP:  54; 6HR MAX TEMP:  60;

$$
MIZ007>008-015-020700-
EASTERN UPPER MICHIGAN

CITY           SKY/WX    TMP DP  RH WIND       PRES   REMARKS
KINROSS        CLOUDY    36  36 100 SE14      29.73F WCI  27
6HR MIN TEMP:  34; 6HR MAX TEMP:  36;

MACKINAC ISLAN MOCLDY    37  33  85 SE12      29.71F WCI  29
6HR MIN TEMP:  33; 6HR MAX TEMP:  37; 6HR PCP:  0.02;

NEWBERRY       CLOUDY    38  34  85 SE8       29.67F WCI  32
S. S. MARIE    CLOUDY    35  32  88 E9G21     29.75F FOG     WCI  28
6HR MIN TEMP:  33; 6HR MAX TEMP:  36; 6HR PCP:  0.15;

$$
MIZ004>006-011>014-085-020700-
CENTRAL UPPER MICHIGAN

CITY           SKY/WX    TMP DP  RH WIND       PRES   REMARKS
MANISTIQUE     CLOUDY    40  35  80 SE8       29.65F
ESCANABA       CLOUDY    45  34  65 S8        29.60F
6HR MIN TEMP:  36; 6HR MAX TEMP:  45;

MENOMINEE      CLOUDY    54  37  54 SW14      29.61F
6HR MIN TEMP:  39; 6HR MAX TEMP:  55;

SAWYER-GWINN   CLOUDY    42  34  74 SW17G23   29.55F
$$
MIZ001>003-009>011-084-020700-
WESTERN UPPER MICHIGAN

CITY           SKY/WX    TMP DP  RH WIND       PRES   REMARKS
IRON MOUNTAIN  LGT RAIN  39  33  79 N5        29.60F
6HR MIN TEMP:  38; 6HR MAX TEMP:  46; 6HR PCP: TRACE;

HOUGHTON       MOCLDY    46  35  65 SW9       29.44F
6HR MIN TEMP:  38; 6HR MAX TEMP:  47; 6HR PCP:  0.01;

COPPER HARBOR    N/A     40  33  76 VRB5      29.44F
6HR MIN TEMP:  37; 6HR MAX TEMP:  41; 6HR PCP:  0.06;

IRONWOOD       CLOUDY    55  46  71 S18G26    29.43S
6HR MIN TEMP:  55; 6HR MAX TEMP:  63;

$$

ABBREVIATIONS USED IN REMARKS
   TC - TEMPERATURE IN CELSIUS
  WCI - WIND CHILL INDEX
   HX - HEAT INDEX
  VSB - VISIBILITY



USA.gov is the U.S. government's official web portal to all federal, state and local government web resources and services.